KLM91C EHAM-EDDL

Flight info

Callsign KLM91C
Flight time N/A
Altitude 17000
Route ARNEM T196 TEBRO P62 PISAP PISAP1A
Aircraft E190/M-SDE3GILORVW/S

Departure

Time 2026-05-05 13:25
Airport Amsterdam Airport Schiphol (EHAM)

Arrival

Time N/A
Airport Düsseldorf Airport (EDDL)
Time Latitude Longitude Altitude Speed Heading
2026-05-05 12:32 52.30390 4.76155 -2 ft 0 kts 58°
2026-05-05 13:14 52.30386 4.76146 -2 ft 4 kts 59°
2026-05-05 13:14 52.30375 4.76109 -2 ft 4 kts 75°
2026-05-05 13:14 52.30373 4.76067 -2 ft 4 kts 111°
2026-05-05 13:15 52.30383 4.76043 -2 ft 1 kts 150°
2026-05-05 13:15 52.30386 4.76041 -2 ft 0 kts 150°
2026-05-05 13:19 52.30372 4.76058 -2 ft 6 kts 141°
2026-05-05 13:19 52.30329 4.76126 -2 ft 11 kts 135°
2026-05-05 13:20 52.30254 4.76206 -2 ft 15 kts 149°
2026-05-05 13:20 52.30165 4.76185 -2 ft 15 kts 240°
2026-05-05 13:20 52.30108 4.76028 -2 ft 20 kts 238°
2026-05-05 13:20 52.30040 4.75851 -2 ft 10 kts 238°
2026-05-05 13:21 52.29995 4.75734 -2 ft 14 kts 238°
2026-05-05 13:21 52.29933 4.75573 -2 ft 19 kts 237°
2026-05-05 13:21 52.29854 4.75373 -2 ft 23 kts 239°
2026-05-05 13:21 52.29880 4.75124 -2 ft 26 kts 311°
2026-05-05 13:22 52.29964 4.74918 -2 ft 17 kts 276°
2026-05-05 13:22 52.29968 4.74718 1 ft 18 kts 281°
2026-05-05 13:22 52.30040 4.74569 8 ft 18 kts 315°
2026-05-05 13:22 52.30143 4.74401 8 ft 23 kts 315°
2026-05-05 13:23 52.30269 4.74185 -2 ft 22 kts 313°
2026-05-05 13:23 52.30320 4.74093 -2 ft 12 kts 312°
2026-05-05 13:23 52.30285 4.73990 -2 ft 14 kts 217°
2026-05-05 13:23 52.30197 4.73871 -3 ft 19 kts 237°
2026-05-05 13:24 52.30251 4.73743 -5 ft 0 kts
2026-05-05 13:24 52.30304 4.73746 -5 ft 24 kts
2026-05-05 13:25 52.30775 4.73793 -2 ft 110 kts
2026-05-05 13:25 52.31751 4.73885 233 ft 161 kts
2026-05-05 13:25 52.32865 4.74013 1466 ft 159 kts
2026-05-05 13:25 52.34013 4.74089 2571 ft 163 kts
2026-05-05 13:26 52.35011 4.74495 4007 ft 141 kts 39°
2026-05-05 13:26 52.35557 4.75754 4935 ft 146 kts 56°
2026-05-05 13:26 52.36112 4.76628 4895 ft 192 kts 30°
2026-05-05 13:26 52.37468 4.77395 4836 ft 213 kts 17°
2026-05-05 13:27 52.38788 4.78576 4204 ft 224 kts 47°
2026-05-05 13:27 52.39762 4.80424 4610 ft 215 kts 49°
2026-05-05 13:27 52.40830 4.82246 4574 ft 221 kts 44°
2026-05-05 13:27 52.41680 4.84271 4579 ft 215 kts 70°
2026-05-05 13:28 52.42061 4.86628 4592 ft 213 kts 78°
2026-05-05 13:28 52.42303 4.89009 4590 ft 210 kts 83°
2026-05-05 13:28 52.42379 4.91233 4582 ft 208 kts 88°
2026-05-05 13:28 52.42401 4.93685 4558 ft 205 kts 89°
2026-05-05 13:29 52.42382 4.96167 4636 ft 252 kts 95°
2026-05-05 13:29 52.41700 4.99222 4730 ft 322 kts 123°
2026-05-05 13:29 52.40003 5.01774 5900 ft 341 kts 146°
2026-05-05 13:29 52.38063 5.03902 6749 ft 318 kts 146°
2026-05-05 13:30 52.36384 5.05981 6943 ft 288 kts 137°
2026-05-05 13:30 52.35134 5.08342 7136 ft 263 kts 128°
2026-05-05 13:30 52.34047 5.10859 7386 ft 278 kts 123°
2026-05-05 13:30 52.33053 5.13582 7628 ft 280 kts 120°
2026-05-05 13:31 52.32123 5.16394 7815 ft 282 kts 118°
2026-05-05 13:31 52.31227 5.19241 7808 ft 281 kts 117°
2026-05-05 13:31 52.30432 5.22115 7789 ft 280 kts 112°
2026-05-05 13:31 52.29712 5.25086 7860 ft 285 kts 112°
2026-05-05 13:32 52.28997 5.28062 7805 ft 279 kts 112°
2026-05-05 13:32 52.28291 5.31016 7787 ft 276 kts 112°
2026-05-05 13:32 52.27586 5.33960 8072 ft 281 kts 112°
2026-05-05 13:32 52.26898 5.36830 8336 ft 283 kts 112°
2026-05-05 13:33 52.26174 5.39852 8632 ft 284 kts 112°
2026-05-05 13:33 52.25452 5.42859 8924 ft 285 kts 112°
2026-05-05 13:33 52.24725 5.45879 9210 ft 287 kts 112°
2026-05-05 13:33 52.23994 5.48920 9498 ft 288 kts 112°
2026-05-05 13:34 52.23257 5.51972 9800 ft 303 kts 112°
2026-05-05 13:34 52.22458 5.55280 10105 ft 321 kts 112°
2026-05-05 13:34 52.21628 5.58714 10399 ft 328 kts 112°
2026-05-05 13:34 52.20788 5.62178 10671 ft 329 kts 112°
2026-05-05 13:35 52.19945 5.65652 10950 ft 330 kts 111°
2026-05-05 13:35 52.19097 5.69144 11230 ft 331 kts 111°
2026-05-05 13:35 52.18243 5.72646 11495 ft 333 kts 111°
2026-05-05 13:35 52.17388 5.76158 11773 ft 334 kts 111°
2026-05-05 13:36 52.16537 5.79638 12049 ft 335 kts 111°
2026-05-05 13:36 52.15672 5.83176 12336 ft 336 kts 111°
2026-05-05 13:36 52.14804 5.86721 12612 ft 338 kts 111°
2026-05-05 13:36 52.13930 5.90281 12897 ft 339 kts 111°
2026-05-05 13:37 52.13050 5.93856 13181 ft 340 kts 112°
2026-05-05 13:37 52.11834 5.97148 13465 ft 343 kts 128°
2026-05-05 13:37 52.10283 6.00131 13760 ft 345 kts 130°
2026-05-05 13:37 52.08737 6.03127 14018 ft 345 kts 128°
2026-05-05 13:38 52.07274 6.06216 14274 ft 346 kts 126°
2026-05-05 13:38 52.05785 6.09296 14531 ft 347 kts 136°
2026-05-05 13:38 52.03787 6.11473 14796 ft 348 kts 150°
2026-05-05 13:38 52.01771 6.13670 14928 ft 349 kts 141°
2026-05-05 13:39 51.99972 6.16225 14985 ft 348 kts 135°
2026-05-05 13:39 51.98291 6.19061 15007 ft 350 kts 131°
2026-05-05 13:39 51.96648 6.22150 14969 ft 370 kts 129°
2026-05-05 13:39 51.95005 6.25388 14829 ft 371 kts 128°
2026-05-05 13:40 51.93486 6.28773 14639 ft 370 kts 122°
2026-05-05 13:40 51.92081 6.32246 14444 ft 368 kts 123°
2026-05-05 13:40 51.90692 6.35715 14251 ft 366 kts 122°
2026-05-05 13:40 51.89369 6.39055 13980 ft 353 kts 122°
2026-05-05 13:41 51.88065 6.42339 13607 ft 340 kts 121°
2026-05-05 13:41 51.86820 6.45471 13191 ft 331 kts 122°
2026-05-05 13:41 51.85579 6.48592 12794 ft 330 kts 122°
2026-05-05 13:41 51.84331 6.51723 12405 ft 330 kts 122°
2026-05-05 13:42 51.83089 6.54835 12023 ft 329 kts 122°
2026-05-05 13:42 51.81849 6.57931 11643 ft 326 kts 123°
2026-05-05 13:42 51.80358 6.60646 11262 ft 324 kts 144°
2026-05-05 13:42 51.78359 6.62320 10886 ft 321 kts 158°
2026-05-05 13:43 51.76341 6.63702 10527 ft 319 kts 149°
2026-05-05 13:43 51.74776 6.66080 10163 ft 317 kts 124°
2026-05-05 13:43 51.73991 6.69386 9808 ft 318 kts 101°
2026-05-05 13:43 51.73716 6.72930 9433 ft 318 kts 98°
2026-05-05 13:44 51.73456 6.76473 9070 ft 316 kts 99°
2026-05-05 13:44 51.73108 6.79970 8836 ft 316 kts 102°
2026-05-05 13:44 51.72663 6.83433 8487 ft 314 kts 104°
2026-05-05 13:44 51.72170 6.86818 8103 ft 306 kts 105°
2026-05-05 13:45 51.71659 6.90103 7715 ft 297 kts 106°
2026-05-05 13:45 51.71035 6.93231 7333 ft 290 kts 111°
2026-05-05 13:45 51.70345 6.96245 6948 ft 284 kts 112°
2026-05-05 13:45 51.69665 6.99168 6550 ft 272 kts 112°
2026-05-05 13:46 51.68994 7.02017 6168 ft 271 kts 112°
2026-05-05 13:46 51.68330 7.04823 5777 ft 271 kts 112°
2026-05-05 13:46 51.67660 7.07655 5430 ft 269 kts 112°
2026-05-05 13:46 51.66749 7.10250 5211 ft 266 kts 134°
2026-05-05 13:47 51.65186 7.11767 5034 ft 265 kts 166°
2026-05-05 13:47 51.63370 7.11749 4875 ft 264 kts 197°
2026-05-05 13:47 51.61802 7.10230 4643 ft 264 kts 220°
2026-05-05 13:47 51.60315 7.08488 4317 ft 265 kts 211°
2026-05-05 13:48 51.58680 7.07112 3986 ft 265 kts 204°
2026-05-05 13:48 51.56967 7.06028 3653 ft 264 kts 198°
2026-05-05 13:48 51.55216 7.05145 3340 ft 264 kts 195°
2026-05-05 13:48 51.53516 7.04384 3014 ft 259 kts 194°
2026-05-05 13:49 51.51775 7.03773 2674 ft 254 kts 187°
2026-05-05 13:49 51.50037 7.03362 2325 ft 252 kts 186°
2026-05-05 13:49 51.48293 7.02979 2074 ft 251 kts 186°
2026-05-05 13:49 51.47481 7.02801 2073 ft 247 kts 186°
2026-05-05 13:50 51.45776 7.02433 2091 ft 243 kts 186°
2026-05-05 13:50 51.44116 7.02067 2054 ft 240 kts 185°
2026-05-05 13:50 51.42445 7.01671 2054 ft 244 kts 191°
2026-05-05 13:50 51.40986 7.00384 2300 ft 246 kts 223°
2026-05-05 13:51 51.39845 6.98345 2590 ft 244 kts 229°
2026-05-05 13:51 51.38871 6.96128 2842 ft 244 kts 249°
2026-05-05 13:51 51.38520 6.93525 3057 ft 243 kts 259°
2026-05-05 13:51 51.37773 6.91104 3229 ft 253 kts 229°
2026-05-05 13:52 51.36471 6.88936 3469 ft 283 kts 225°
2026-05-05 13:52 51.35103 6.86754 3684 ft 287 kts 225°
2026-05-05 13:52 51.33689 6.84495 3893 ft 287 kts 225°
2026-05-05 13:52 51.32304 6.82266 4069 ft 286 kts 225°
2026-05-05 13:53 51.30921 6.79966 4250 ft 286 kts 229°
2026-05-05 13:53 51.29659 6.77517 4428 ft 287 kts 231°
2026-05-05 13:53 51.28401 6.75027 4608 ft 287 kts 231°
2026-05-05 13:53 51.27132 6.72491 4757 ft 298 kts 231°
2026-05-05 13:54 51.25836 6.69894 4767 ft 299 kts 231°
2026-05-05 13:54 51.24540 6.67306 4756 ft 298 kts 231°
2026-05-05 13:54 51.23325 6.64885 4730 ft 298 kts 231°
2026-05-05 13:54 51.22027 6.62297 4725 ft 298 kts 231°
2026-05-05 13:55 51.20801 6.59857 4592 ft 296 kts 231°
2026-05-05 13:55 51.19561 6.57393 4421 ft 281 kts 231°
2026-05-05 13:55 51.18378 6.54978 4245 ft 271 kts 237°
2026-05-05 13:55 51.17797 6.52204 4055 ft 264 kts 268°
2026-05-05 13:56 51.18206 6.49393 3893 ft 263 kts 300°
2026-05-05 13:56 51.19422 6.47358 3504 ft 266 kts 329°
2026-05-05 13:56 51.21165 6.46592 3121 ft 252 kts